CZ-6A DEB

Satellite information

Favourite Embed

Satellite Type and Status

DEBRISDECAYED

Key statistics

Satellite CZ-6A DEB at a glance.

Uptime

771

Days in orbit

Revolutions

≈ 14.4

Per day

Orbit

SSO

Sun Synchronous Orbit

Inclination

98.6

Latest

Satellite identification and parameters

Extended collection of information and parameters for CZ-6A DEB.

Object identification

Identified? True

Debris? True

Object name: CZ-6A DEB

International designator: 2022-151PV

Object number (NORAD): 54884

Object ID (CCSDS): 54884

Country: PEOPLES REPUBLIC OF CHINA (PRC)

Current information (Y/N): Y

RCS size: SMALL

Orbital parameters

Decay date: Dec. 21, 2024

Period: 99.884 minutes

Inclination: 98.5609 deg

SMA: 7131.126 km

Apoapsis: 794.435 km

Periapsis: 711.546 km

RAAN: 49.9176 deg

Eccentricy: 0.0058118

Argument of periapsis: 70.0559 deg

Mean anomaly: 290.6878 deg

Mean motion: 14.41669182 rev/day

Mean motion (dot): 0.00044637 rev/day2

B* drag term: 0.013352 1/REarth

Two-line elements (TLE)

Creation date: Feb. 11, 2024, 10:56 p.m.

Reference frame: TEME

Reference center: EARTH

Epoch: Feb. 11, 2024, 5:16 a.m. UTC

TLE line 0: 0 CZ-6A DEB

TLE line 1: 1 54884U 22151PV 24042.22010279 .00044637 00000-0 13352-1 0 9994

TLE line 2: 2 54884 98.5609 49.9176 0058118 70.0559 290.6878 14.41669182 62429

Live tracking on map

Satellite CZ-6A DEB has decayed and is no longer in orbit. No tracking available.

In-orbit conjunctions

Satellite CZ-6A DEB has decayed and is no longer in orbit. No conjunctions available.

Associated space launch

Chinese satellite reported for atmospheric/ocean/environmental/spatial parameter research purposes, details TBD.

CZ-6A DEB was lifted into orbit during the mission ‘Long March 6A | Yunhai 3’, on board a Long March 6A space rocket.

The launch took place on Nov. 11, 2022, 10:52 p.m. from Launch Complex 9A.

For more information about the launch, click the button.

Launch to space Long March 6A | Yunhai 3
Long March 6A | Yunhai 3

Agency: N/A

Status: Launch Successful

Launch date: Nov. 11, 2022, 10:52 p.m. UTC

Rocket: Long March 6A

Launch pad: Launch Complex 9A

Location: Taiyuan Satellite Launch Center, People's Republic of China

...

Latest news about this satellite

There are no fresh news available about this satellite. Check back as we update our databases every day.


Newsletter sign-up

Weekly statistics, charts and insights to help you stay on top of the space industry.